STARLINK-2479 (48136 NORAD) Tracking and Keplerian Element Data

This shows tracking and keplerian element data for the satellite.

Feedback or suggestion? Click here.




ElementValue
Catalog48136
NameSTARLINK-2479
Epoch Orbit179
Epoch Day136.75001157
Epoch Year2021
RAAN146.6364
Inclination53.0458
Eccentricity0.0001395
Argument of Perigee59.7115
Mean Anonmoly108.1148
Mean Motion15.55258001
Decay Rate-0.01177494
L11 48136U 21027AW 21136.75001157 -.01177494 00000-0 -19000-1 0 9999
L22 48136 53.0458 146.6364 0001395 59.7115 108.1148 15.55258001 1797

Live tracking and technical data element details for STARLINK-2479 (NORAD 48136). STARLINK-2479 can be tracked NOW for your location showing map with azimuth and elevation plus other details from your city location.

Track the satellite on the map from your city or location and see movement details for azimuth, elevation, latitude, longitude, range, height, and movement on the map or in text.







IsCatalogInMostPopularTable: catalog: 48136, numindb: 15
Update: records affected: 1



GetName: 48136 STARLINK-2479

Hit Count: updated at: Mon, 17 May 2021 16:06:49 GMT